Home   Weather   Constanța   Past weeks

Flag for Romania Past Weather in Constanța, Romania — Yesterday and Last 2 Weeks

Now
67 °F

Scattered clouds.


Feels Like: 67 °F
Forecast: 56 / 75 °F
Wind: 1 mph from East

Location: Constanta

Current Time: Sep 28, 2016 at 3:10:16 PM

Latest Report: Sep 28, 2016 at 2:00 PM


Visibility: 6 mi

Pressure: 30.35 "Hg

Humidity: 48%

Dew Point: 46 °F

Location of ConstanțaLocation

Past Weather in Constanța — Graph

°F

Constanța Temperature Yesterday

Maximum temperature yesterday: 67 °F (at 4:00 PM)
Minimum temperature yesterday: 54 °F (at 8:00 AM)
Average temperature yesterday: 61 °F

High & Low Weather Summary for the Past Weeks

 TemperatureHumidityPressure
High89 °F (Sep 18, 3:00 PM)100% (Sep 19, 8:00 AM)30.37 "Hg (Sep 19, 8:00 AM)
Low50 °F (Sep 23, 6:00 AM)32% (Sep 18, 3:00 PM)29.50 "Hg (Sep 20, 6:00 AM)
Average65 °F67%30.02 "Hg
* Reported Sep 13 1:00 PM — Sep 28 1:00 PM, Constanța, Weather by CustomWeather, © 2016

Note: Actual official high and low records may vary slightly from our data, if they occured in-between our weather recording intervals... More about our weather records

Advertising

Constanța Weather History for the Previous 24 Hours

Scroll right to see more
 ConditionsComfort  
Time TempWeatherWind HumidityBarometerVisibility
1:00 PM
Wed, Sep 28
65 °FPassing clouds.1 mph51%30.37 "Hg6 mi
12:00 PM64 °FSunny.2 mph53%30.37 "Hg6 mi
11:00 AM64 °FScattered clouds.1 mph54%30.37 "Hg6 mi
10:00 AM60 °FScattered clouds.2 mph62%30.35 "Hg6 mi
9:00 AM55 °FPassing clouds.2 mph72%30.34 "Hg6 mi
8:00 AM53 °FPassing clouds.1 mph77%30.33 "Hg6 mi
7:00 AM53 °FSunny.1 mph72%30.32 "Hg6 mi
6:00 AM56 °FClear.1 mph67%30.32 "Hg6 mi
5:00 AM55 °FClear.1 mph69%30.31 "Hg6 mi
4:00 AM55 °FClear.1 mph71%30.30 "Hg6 mi
3:00 AM54 °FClear.1 mph72%30.29 "Hg6 mi
2:00 AM55 °FClear.1 mph69%30.29 "Hg6 mi
1:00 AM56 °FClear.1 mph65%30.29 "Hg6 mi
12:00 AM57 °FClear.1 mph64%30.29 "Hg6 mi
11:00 PM
Tue, Sep 27
58 °FClear.1 mph67%30.28 "Hg6 mi
10:00 PM60 °FClear.1 mph63%30.29 "Hg6 mi
9:00 PM60 °FClear.1 mph63%30.27 "Hg6 mi
7:00 PM64 °FPassing clouds.No wind53%30.24 "Hg6 mi
6:00 PM65 °FPartly sunny.2 mph54%30.24 "Hg6 mi
4:00 PM67 °FScattered clouds.1 mph50%30.24 "Hg6 mi
3:00 PM66 °FPartly sunny.2 mph48%30.24 "Hg6 mi
Weather by CustomWeather, © 2016

See weather overviewHow to use our weather pages